Regional Weather Roundup
Issued by NWS Sioux Falls, SD

Home | Current Version | Previous Version | Text Only | Print | Product List | Glossary On
Versions: 1 2 3 4 5 6 7 8 9 10 11 12 13 14 15 16 17 18 19 20 21 22 23 24 25 26 27 28 29 30 31 32 33 34 35 36 37 38 39 40 41 42 43 44 45 46 47 48 49 50
000
ASUS43 KFSD 151310
RWRFSD

WEATHER ROUNDUP FOR SE SOUTH DAKOTA/SW MINNESOTA/NW IOWA
NATIONAL WEATHER SERVICE SIOUX FALLS SD
700 AM CST FRI DEC 15 2017

NOTE: "FAIR" INDICATES FEW OR NO CLOUDS BELOW 12,000 FEET WITH NO
SIGNIFICANT WEATHER AND OR OBSTRUCTIONS TO VISIBILITY.


SDZ038>040-050-052>070-151400-
SOUTHEAST SOUTH DAKOTA

CITY           SKY/WX    TMP DP  RH WIND       PRES   REMARKS
BROOKINGS      CLOUDY    30  26  85 W10       29.88F WCI  21
CHAMBERLAIN    CLOUDY    28  25  89 CALM      29.91F
HURON          CLOUDY    30  26  85 W9        29.90F WCI  22
MADISON        CLOUDY    30  30 100 W10       29.90S WCI  21
MITCHELL       CLOUDY    30  24  78 W10       29.94F WCI  21
SIOUX FALLS    CLOUDY    32  28  85 W9        29.92F WCI  24
WINNER         FAIR      27  20  75 SW7       29.91F WCI  19
YANKTON        MOCLDY    32  26  78 SW9       29.97F WCI  24
$$

MNZ071-072-080-081-089-090-097-098-151400-
SOUTHWEST MINNESOTA

CITY           SKY/WX    TMP DP  RH WIND       PRES   REMARKS
FAIRMONT       FLURRIES  29  26  89 W12       29.92S WCI  19
JACKSON        CLOUDY    30  27  86 MISG      29.91S
LUVERNE        CLOUDY    32  27  80 W10       29.92F WCI  24
MARSHALL       CLOUDY    31  27  85 W9        29.88F WCI  23
MONTEVIDEO     CLOUDY    30  28  93 CALM      29.88F
PIPESTONE      CLOUDY    28  27  93 W8        29.87F WCI  20
REDWOOD FALLS  CLOUDY    31  28  89 W8        29.88F WCI  23
TRACY          CLOUDY    32  28  86 W6        29.88F WCI  26
WINDOM           N/A     30  18  59 SW10      29.89F WCI  21
WORTHINGTON    CLOUDY    29  26  89 W14       29.91F WCI  18
$$

IAZ001>003-012>014-020>022-031-032-NEZ013-014-SDZ071-151400-
NORTHWEST IOWA

CITY           SKY/WX    TMP DP  RH WIND       PRES   REMARKS
CHEROKEE       CLOUDY    32  26  79 W8        29.97S WCI  25
DENISON        CLOUDY    32  25  74 SW9       30.02R WCI  24
ESTHERVILLE    CLOUDY    29  26  89 W10       29.91F WCI  20
LE MARS        CLOUDY    34  27  75 SW7       29.97S WCI  28
ORANGE CITY    CLOUDY    34  30  86 W13       29.95S WCI  25
SHELDON        CLOUDY    30  27  86 W10       29.92F WCI  21
SIOUX CITY     CLOUDY    34  26  72 W13       29.99F WCI  25
SPENCER        CLOUDY    31  27  85 W12       29.93F WCI  22
STORM LAKE     CLOUDY    30  25  80 W10       29.95F WCI  21
$$

ABBREVIATIONS USED IN REMARKS
   TC - TEMPERATURE IN CELSIUS
  WCI - WIND CHILL INDEX
   HX - HEAT INDEX
  VSB - VISIBILITY




USA.gov is the U.S. government's official web portal to all federal, state and local government web resources and services.